Year,Month,Day,Hour,Minute,Value (Times are PST for barometer in hPa)
2023,11,03,11,00,1052.35
2023,11,03,11,01,1052.35
2023,11,03,11,02,1052.35
2023,11,03,11,03,1052.35
2023,11,03,11,04,1052.35
2023,11,03,11,05,1052.35
2023,11,03,11,06,1052.35
2023,11,03,11,07,1052.35
2023,11,03,11,08,1052.35
2023,11,03,11,09,1052.35
2023,11,03,11,10,1052.35
2023,11,03,11,11,1052.35
2023,11,03,11,12,1052.35
2023,11,03,11,13,1052.35
2023,11,03,11,14,1052.35
2023,11,03,11,15,1052.35
2023,11,03,11,16,1052.35
2023,11,03,11,17,1052.35
2023,11,03,11,18,1052.35
2023,11,03,11,19,1052.35
2023,11,03,11,20,1052.35
2023,11,03,11,21,1052.35
2023,11,03,11,22,1052.35
2023,11,03,11,23,1052.35
2023,11,03,11,24,1052.35
2023,11,03,11,25,1052.35
2023,11,03,11,26,1052.35
2023,11,03,11,27,1052.35
2023,11,03,11,28,1052.35
2023,11,03,11,29,1052.35
2023,11,03,11,30,1052.35
2023,11,03,11,31,1052.35
2023,11,03,11,32,1052.35
2023,11,03,11,33,1052.35
2023,11,03,11,34,1052.35
2023,11,03,11,35,1052.35
2023,11,03,11,36,1052.35
2023,11,03,11,37,1052.35
2023,11,03,11,38,1052.35
2023,11,03,11,39,1052.35
2023,11,03,11,40,1052.35
2023,11,03,11,41,1052.35
2023,11,03,11,42,1052.35
2023,11,03,11,43,1052.35
2023,11,03,11,44,1052.35
2023,11,03,11,45,1052.35
2023,11,03,11,46,1052.35
2023,11,03,11,47,1052.35
2023,11,03,11,48,1052.35
2023,11,03,11,49,1052.35
2023,11,03,11,50,1052.35
2023,11,03,11,51,1052.35
2023,11,03,11,52,1052.35
2023,11,03,11,53,1052.35
2023,11,03,11,54,1052.35
2023,11,03,11,55,1052.35
2023,11,03,11,56,1052.35
2023,11,03,11,57,1052.35
2023,11,03,11,58,1052.35
2023,11,03,11,59,1052.35
2023,11,03,12,00,1052.35
2023,11,03,12,01,1052.35
2023,11,03,12,02,1052.35
2023,11,03,12,03,1052.35
2023,11,03,12,04,1052.35
2023,11,03,12,05,1052.35
2023,11,03,12,06,1052.35
2023,11,03,12,07,1052.35
2023,11,03,12,08,1052.35
2023,11,03,12,09,1052.35
2023,11,03,12,10,1052.35
2023,11,03,12,11,1052.35
2023,11,03,12,12,1052.35
2023,11,03,12,13,1052.35
2023,11,03,12,14,1052.35
2023,11,03,12,15,1052.35
2023,11,03,12,16,1052.35
2023,11,03,12,17,1052.35
2023,11,03,12,18,1052.35
2023,11,03,12,19,1052.35
2023,11,03,12,20,1052.35
2023,11,03,12,21,1052.35
2023,11,03,12,22,1052.35
2023,11,03,12,23,1052.35
2023,11,03,12,24,1052.35
2023,11,03,12,25,1052.35
2023,11,03,12,26,1052.35
2023,11,03,12,27,1052.35
2023,11,03,12,28,1052.35
2023,11,03,12,29,1052.35
2023,11,03,12,30,1052.35
2023,11,03,12,31,1052.35
2023,11,03,12,32,1052.35
2023,11,03,12,33,1052.35
2023,11,03,12,34,1052.35
2023,11,03,12,35,1052.35
2023,11,03,12,36,1052.35
2023,11,03,12,37,1052.35
2023,11,03,12,38,1052.35
2023,11,03,12,39,1052.35
2023,11,03,12,40,1052.35
2023,11,03,12,41,1052.35
2023,11,03,12,42,1052.35
2023,11,03,12,43,1052.35
2023,11,03,12,44,1052.35
2023,11,03,12,45,1052.35
2023,11,03,12,46,1052.35
2023,11,03,12,47,1052.35
2023,11,03,12,48,1052.35
2023,11,03,12,49,1052.35
2023,11,03,12,50,1052.35
2023,11,03,12,51,1052.35
2023,11,03,12,52,1052.35
2023,11,03,12,53,1052.35
2023,11,03,12,54,1052.35
2023,11,03,12,55,1052.35
2023,11,03,12,56,1052.35
2023,11,03,12,57,1052.35
2023,11,03,12,58,1052.35
2023,11,03,12,59,1052.35
2023,11,03,13,00,1052.35
2023,11,03,13,01,1052.35
2023,11,03,13,02,1052.35
2023,11,03,13,03,1052.35
2023,11,03,13,04,1052.35
2023,11,03,13,05,1052.35
2023,11,03,13,06,1052.35
2023,11,03,13,07,1052.35
2023,11,03,13,08,1052.35
2023,11,03,13,09,1052.35
2023,11,03,13,10,1052.35
2023,11,03,13,11,1052.35
2023,11,03,13,12,1052.35
2023,11,03,13,13,1052.35
2023,11,03,13,14,1052.35
2023,11,03,13,15,1052.35
2023,11,03,13,16,1052.35
2023,11,03,13,17,1052.35
2023,11,03,13,18,1052.35
2023,11,03,13,19,1052.35
2023,11,03,13,20,1052.35
2023,11,03,13,21,1052.35
2023,11,03,13,22,1052.35
2023,11,03,13,23,1052.35
2023,11,03,13,24,1052.35
2023,11,03,13,25,1052.35
2023,11,03,13,26,1052.35
2023,11,03,13,27,1052.35
2023,11,03,13,28,1052.35
2023,11,03,13,29,1052.35
2023,11,03,13,30,1052.35
2023,11,03,13,31,1052.35
2023,11,03,13,32,1048.06
2023,11,03,13,33,966.58
2023,11,03,13,34,966.24
2023,11,03,13,35,966.48
2023,11,03,13,36,966.48
2023,11,03,13,37,966.24
2023,11,03,13,38,966.85
2023,11,03,13,39,966.85
2023,11,03,13,40,966.75
2023,11,03,13,41,967.05
2023,11,03,13,42,967.02
2023,11,03,13,43,967.05
2023,11,03,13,44,966.86
2023,11,03,13,45,967.05
2023,11,03,13,46,967.04
2023,11,03,13,47,966.85
2023,11,03,13,48,967.05
2023,11,03,13,49,967.09
2023,11,03,13,50,967.05
2023,11,03,13,51,967.05
2023,11,03,13,52,967.12
2023,11,03,13,53,967.09
2023,11,03,13,54,967.12
2023,11,03,13,55,967.05
2023,11,03,13,56,967.05
2023,11,03,13,57,967.05
2023,11,03,13,58,967.09
2023,11,03,13,59,967.12
2023,11,03,14,00,967.46
2023,11,03,14,01,967.05
2023,11,03,14,02,967.15
2023,11,03,14,03,967.25
2023,11,03,14,04,967.22
2023,11,03,14,05,967.59
2023,11,03,14,06,967.25
2023,11,03,14,07,967.25
2023,11,03,14,08,967.44
2023,11,03,14,09,967.86
2023,11,03,14,10,967.66
2023,11,03,14,11,967.66
2023,11,03,14,12,967.66
2023,11,03,14,13,967.68
2023,11,03,14,14,968.00
2023,11,03,14,15,968.00
2023,11,03,14,16,968.00
2023,11,03,14,17,968.20
2023,11,03,14,18,968.20
2023,11,03,14,19,968.20
2023,11,03,14,20,968.20
2023,11,03,14,21,968.20
2023,11,03,14,22,968.20
2023,11,03,14,23,968.20
2023,11,03,14,24,968.20
2023,11,03,14,25,968.20
2023,11,03,14,26,968.20
2023,11,03,14,27,968.20
2023,11,03,14,28,968.20
2023,11,03,14,29,968.20
2023,11,03,14,30,968.20
2023,11,03,14,31,1021.64
2023,11,03,14,32,1021.64
2023,11,03,14,33,1021.64
2023,11,03,14,34,1021.64
2023,11,03,14,35,1021.64
2023,11,03,14,36,1021.64
2023,11,03,14,37,1021.64
2023,11,03,14,38,1021.64
2023,11,03,14,39,1021.64
2023,11,03,14,40,1021.64
2023,11,03,14,41,1021.64
2023,11,03,14,42,1021.64
2023,11,03,14,43,1021.64
2023,11,03,14,44,1021.64
2023,11,03,14,45,1021.64
2023,11,03,14,46,1021.64
2023,11,03,14,47,1021.64
2023,11,03,14,48,1021.64
2023,11,03,14,49,1021.64
2023,11,03,14,50,1021.64
2023,11,03,14,51,1021.64
2023,11,03,14,52,1021.64
2023,11,03,14,53,1021.64
2023,11,03,14,54,1021.64
2023,11,03,14,55,1021.64
2023,11,03,14,56,1021.64
2023,11,03,14,57,1021.64
2023,11,03,14,58,1021.64
2023,11,03,14,59,1021.64
2023,11,03,15,00,1021.64
2023,11,03,15,01,1021.64
2023,11,03,15,02,1021.64
2023,11,03,15,03,1021.64
2023,11,03,15,04,1021.64
2023,11,03,15,05,1021.64
2023,11,03,15,06,1021.64
2023,11,03,15,07,1021.64
2023,11,03,15,08,1021.64
2023,11,03,15,09,1021.64
2023,11,03,15,10,1021.64
2023,11,03,15,11,1021.64
2023,11,03,15,12,1021.64
2023,11,03,15,13,1021.64
2023,11,03,15,14,1021.64
2023,11,03,15,15,1021.64
2023,11,03,15,16,1021.64
2023,11,03,15,17,1021.64
2023,11,03,15,18,1021.64
2023,11,03,15,19,1021.64
2023,11,03,15,20,1021.64
2023,11,03,15,21,1021.64
2023,11,03,15,22,1021.64
2023,11,03,15,23,1021.64
2023,11,03,15,24,1021.64
2023,11,03,15,25,1021.64
2023,11,03,15,26,1021.64
2023,11,03,15,27,1021.64
2023,11,03,15,28,1021.64
2023,11,03,15,29,1021.64
2023,11,03,15,30,1021.64
2023,11,03,15,31,1021.64
2023,11,03,15,32,1021.64
2023,11,03,15,33,1021.64
2023,11,03,15,34,1021.64
2023,11,03,15,35,1021.64
2023,11,03,15,36,1021.64
2023,11,03,15,37,1021.64
2023,11,03,15,38,1021.64
2023,11,03,15,39,1021.64
2023,11,03,15,40,1021.64
2023,11,03,15,41,1021.64
2023,11,03,15,42,1021.64
2023,11,03,15,43,1021.64
2023,11,03,15,44,1021.64
2023,11,03,15,45,1021.64
2023,11,03,15,46,1021.64
2023,11,03,15,47,1021.64
2023,11,03,15,48,1021.64
2023,11,03,15,49,1021.64
2023,11,03,15,50,1021.64
2023,11,03,15,51,1021.64
2023,11,03,15,52,1021.64
2023,11,03,15,53,1021.64
2023,11,03,15,54,1021.64
2023,11,03,15,55,1021.64
2023,11,03,15,56,1021.64
2023,11,03,15,57,1021.64
2023,11,03,15,58,1021.64
2023,11,03,15,59,1021.64
2023,11,03,16,00,1021.64
2023,11,03,16,01,1021.64
2023,11,03,16,02,1021.64
2023,11,03,16,03,1021.64
2023,11,03,16,04,1021.64
2023,11,03,16,05,1021.64
2023,11,03,16,06,1021.64
2023,11,03,16,07,1021.64
2023,11,03,16,08,1021.64
2023,11,03,16,09,1021.64
2023,11,03,16,10,1021.64
2023,11,03,16,11,1021.64
2023,11,03,16,12,1021.64
2023,11,03,16,13,1021.64
2023,11,03,16,14,1021.64
2023,11,03,16,15,1021.64
2023,11,03,16,16,1021.64
2023,11,03,16,17,1021.64
2023,11,03,16,18,1021.64
2023,11,03,16,19,1021.64
2023,11,03,16,20,1021.64
2023,11,03,16,21,1021.64
2023,11,03,16,22,1021.64
2023,11,03,16,23,1021.64
2023,11,03,16,24,1021.64
2023,11,03,16,25,1021.64
2023,11,03,16,26,1021.64
2023,11,03,16,27,1021.64
2023,11,03,16,28,1021.64
2023,11,03,16,29,1045.38
2023,11,03,16,30,1045.38
2023,11,03,16,31,1045.38
2023,11,03,16,32,1045.38
2023,11,03,16,33,1045.38
2023,11,03,16,34,1045.38
2023,11,03,16,35,1045.38
2023,11,03,16,36,1045.38
2023,11,03,16,37,1045.38
2023,11,03,16,38,1045.38
2023,11,03,16,39,1045.38
2023,11,03,16,40,1045.38
2023,11,03,16,41,1045.38
2023,11,03,16,42,1045.38
2023,11,03,16,43,1045.38
2023,11,03,16,44,1045.38
2023,11,03,16,45,1045.38
2023,11,03,16,46,1045.38
2023,11,03,16,47,1045.38
2023,11,03,16,48,1045.38
2023,11,03,16,49,1045.38
2023,11,03,16,50,1045.38
2023,11,03,16,51,1045.38
2023,11,03,16,52,1045.38
2023,11,03,16,53,1045.38
2023,11,03,16,54,1045.38
2023,11,03,16,55,1045.38
2023,11,03,16,56,1045.38
2023,11,03,16,57,1045.38
2023,11,03,16,58,1045.38
2023,11,03,16,59,1045.38
2023,11,03,17,00,1045.38
2023,11,03,17,01,1045.38
2023,11,03,17,02,1045.38
2023,11,03,17,03,1045.38
2023,11,03,17,04,1045.38
2023,11,03,17,05,1045.38
2023,11,03,17,06,1045.38
2023,11,03,17,07,1045.38
2023,11,03,17,08,1045.38
2023,11,03,17,09,1045.38
2023,11,03,17,10,1045.38
2023,11,03,17,11,1045.38
2023,11,03,17,12,1045.38
2023,11,03,17,13,1045.38
2023,11,03,17,14,1045.38
2023,11,03,17,15,1045.38
2023,11,03,17,16,1045.38
2023,11,03,17,17,1045.38
2023,11,03,17,18,1045.38
2023,11,03,17,19,1045.38
2023,11,03,17,20,1045.38
2023,11,03,17,21,1045.38
2023,11,03,17,22,1045.38
2023,11,03,17,23,1045.38
2023,11,03,17,24,1045.38
2023,11,03,17,25,1045.38
2023,11,03,17,26,1045.38
2023,11,03,17,27,1045.38
2023,11,03,17,28,1045.38
2023,11,03,17,29,1045.38
2023,11,03,17,30,1045.38
2023,11,03,17,31,1045.38
2023,11,03,17,32,1045.38
2023,11,03,17,33,1045.38
2023,11,03,17,34,1045.38
2023,11,03,17,35,1045.38
2023,11,03,17,36,1045.38
2023,11,03,17,37,1045.38
2023,11,03,17,38,1045.38
2023,11,03,17,39,1045.38
2023,11,03,17,40,1045.38
2023,11,03,17,41,1045.38
2023,11,03,17,42,1045.38
2023,11,03,17,43,1045.38
2023,11,03,17,44,1045.38
2023,11,03,17,45,1045.38
2023,11,03,17,46,1045.38
2023,11,03,17,47,1045.38
2023,11,03,17,48,1045.38
2023,11,03,17,49,1045.38
2023,11,03,17,50,1045.38
2023,11,03,17,51,1045.38
2023,11,03,17,52,1045.38
2023,11,03,17,53,1045.38
2023,11,03,17,54,1045.38
2023,11,03,17,55,1045.38
2023,11,03,17,56,1045.38
2023,11,03,17,57,1045.38
2023,11,03,17,58,1045.38
2023,11,03,17,59,1045.38
2023,11,03,18,00,1045.38
2023,11,03,18,01,1045.38
2023,11,03,18,02,1045.38
2023,11,03,18,03,1045.38
2023,11,03,18,04,1045.38
2023,11,03,18,05,1045.38
2023,11,03,18,06,1045.38
2023,11,03,18,07,1045.38
2023,11,03,18,08,1045.38
2023,11,03,18,09,1045.38
2023,11,03,18,10,1045.38
2023,11,03,18,11,1045.38
2023,11,03,18,12,1045.38
2023,11,03,18,13,1045.38
2023,11,03,18,14,1045.38
2023,11,03,18,15,1045.38
2023,11,03,18,16,1045.38
2023,11,03,18,17,1045.38
2023,11,03,18,18,1045.38
2023,11,03,18,19,1045.38
2023,11,03,18,20,1045.38
2023,11,03,18,21,1045.38
2023,11,03,18,22,1045.38
2023,11,03,18,23,1045.38
2023,11,03,18,24,1045.38
2023,11,03,18,25,1045.38
2023,11,03,18,26,1045.38
2023,11,03,18,27,1045.38
2023,11,03,18,28,1045.38
2023,11,03,18,29,1045.38
2023,11,03,18,30,1045.38
2023,11,03,18,31,1045.38
2023,11,03,18,32,1045.38
2023,11,03,18,33,1045.38
2023,11,03,18,34,1045.38
2023,11,03,18,35,1045.38
2023,11,03,18,36,1045.38
2023,11,03,18,37,1045.38
2023,11,03,18,38,1045.38
2023,11,03,18,39,1045.38
2023,11,03,18,40,1045.38
2023,11,03,18,41,1045.38
2023,11,03,18,42,1045.38
2023,11,03,18,43,1045.38
2023,11,03,18,44,1045.38
2023,11,03,18,45,1045.38
2023,11,03,18,46,1045.38
2023,11,03,18,47,1045.38
2023,11,03,18,48,1045.38
2023,11,03,18,49,1045.38
2023,11,03,18,50,1045.38
2023,11,03,18,51,1045.38
2023,11,03,18,52,1045.38
2023,11,03,18,53,1045.38
2023,11,03,18,54,1045.38
2023,11,03,18,55,1045.38
2023,11,03,18,56,1045.38
2023,11,03,18,57,1045.38
2023,11,03,18,58,1045.38
2023,11,03,18,59,1045.38
2023,11,03,19,00,1045.38
2023,11,03,19,01,1045.38
2023,11,03,19,02,1045.38
2023,11,03,19,03,1045.38
2023,11,03,19,04,1045.38
2023,11,03,19,05,914.90
2023,11,03,19,06,914.90
2023,11,03,19,07,914.90
2023,11,03,19,08,914.90
2023,11,03,19,09,914.90
2023,11,03,19,10,914.90
2023,11,03,19,11,914.90
2023,11,03,19,12,914.90
2023,11,03,19,13,914.90
2023,11,03,19,14,914.90
2023,11,03,19,15,914.90
2023,11,03,19,16,914.90
2023,11,03,19,17,914.90
